EDT,Max TemperatureF,Mean TemperatureF,Min TemperatureF,Max Dew PointF,MeanDew PointF,Min DewpointF,Max Humidity, Mean Humidity, Min Humidity, Max Sea Level PressureIn, Mean Sea Level PressureIn, Min Sea Level PressureIn, Max VisibilityMiles, Mean VisibilityMiles, Min VisibilityMiles, Max Wind SpeedMPH, Mean Wind SpeedMPH, Max Gust SpeedMPH,PrecipitationIn, CloudCover, Events, WindDirDegrees
2013-3-1,43,36,28,35,29,25,100,91,55,29.72,29.59,29.56,10,4,1,10,1,,0.00,7,,10
2013-3-2,39,36,32,27,24,21,75,66,57,29.72,29.69,29.65,10,10,10,15,9,,0.00,8,,342
2013-3-3,35,32,29,27,23,19,80,71,64,29.68,29.66,29.62,10,9,4,12,9,,0.00,8,Snow,336
2013-3-4,37,30,24,21,19,18,76,64,48,29.82,29.72,29.68,10,10,10,17,10,26,0.00,6,,320
2013-3-5,46,36,27,28,23,19,78,63,45,30.06,29.97,29.85,10,10,10,15,8,18,0.00,6,,8
2013-3-6,40,36,31,36,32,27,93,82,69,30.08,30.04,30.02,10,10,7,23,10,30,0.01,8,Rain,61
2013-3-7,35,34,32,34,30,25,100,87,70,30.07,30.05,30.02,10,6,2,24,19,31,0.05,8,Rain-Snow,31
2013-3-8,39,34,30,32,30,23,100,90,54,30.18,30.00,29.96,10,5,2,23,16,32,0.01,7,Rain-Snow,20
2013-3-9,57,44,27,26,20,11,86,45,17,30.35,30.24,30.18,10,10,10,16,11,20,0.00,0,,26
2013-3-10,52,37,22,32,28,22,99,71,40,30.41,30.34,30.28,10,10,10,13,4,,0.00,2,,168
2013-3-11,51,43,35,44,37,32,93,82,59,30.32,30.22,30.12,10,10,10,14,10,21,0.00,7,,182
2013-3-12,54,49,43,54,49,38,100,96,82,30.12,29.88,29.70,10,9,2,20,10,29,0.91,8,Rain,181
2013-3-13,49,38,28,33,26,19,96,61,33,29.83,29.81,29.76,10,10,10,17,8,23,0.00,2,,294
2013-3-14,34,30,25,24,13,6,70,51,35,29.87,29.83,29.79,10,10,10,25,13,34,0.00,6,,304
2013-3-15,42,31,21,30,19,4,87,60,31,29.90,29.77,29.67,10,10,5,20,9,25,0.00,4,Snow,269
2013-3-16,38,31,24,23,14,9,69,47,31,29.89,29.81,29.74,10,10,10,16,8,22,0.00,6,,312
2013-3-17,38,30,22,15,8,2,68,41,23,30.32,30.08,29.91,10,10,10,21,10,26,0.00,0,,322
2013-3-18,38,26,13,27,17,-1,96,69,20,30.46,30.27,30.18,10,6,1,13,4,,0.02,4,Snow,82
2013-3-19,35,32,28,34,30,28,100,98,87,30.18,29.91,29.67,10,3,0,14,6,,0.53,8,Fog-Rain-Snow,9
2013-3-20,37,29,21,29,19,17,98,66,45,29.82,29.79,29.74,10,10,10,21,9,28,0.00,3,Snow,273
2013-3-21,38,28,18,22,15,11,98,62,35,29.83,29.72,29.61,10,10,10,13,3,,0.00,5,,337
2013-3-22,37,28,20,25,19,11,73,60,47,29.80,29.72,29.66,10,10,10,20,8,28,0.00,4,,283
2013-3-23,43,36,30,25,20,16,75,56,38,29.85,29.77,29.73,10,10,10,26,13,36,0.00,6,Snow,288
2013-3-24,46,37,28,22,21,20,72,54,37,29.87,29.81,29.73,10,10,10,14,10,21,0.00,2,,330
2013-3-25,46,37,28,26,24,22,83,61,39,29.76,29.63,29.50,10,10,10,16,7,25,0.00,4,,51
2013-3-26,46,36,24,29,25,18,88,62,35,29.82,29.69,29.57,10,10,10,12,7,18,0.00,7,Snow,350
2013-3-27,54,37,20,30,25,20,98,61,29,29.90,29.84,29.79,10,10,10,20,5,26,0.00,4,Rain,313
2013-3-28,52,40,29,37,31,27,96,66,39,30.05,29.98,29.90,10,10,7,13,6,21,0.00,7,Rain,330
2013-3-29,56,40,27,34,29,26,98,60,33,30.08,30.06,30.01,10,10,10,15,4,,0.00,5,,297
2013-3-30,56,41,26,31,23,15,98,49,21,30.12,30.08,30.03,10,10,10,15,5,23,0.00,2,,316
2013-3-31,58,40,23,42,31,22,99,68,27,30.12,29.94,29.70,10,10,6,22,4,31,0.03,3,Rain,162